User: anonymous   Login
Location: Unspecified
(0.0000°N, 0.0000°E)
Time: 09:16:58
(UTC+00:00)
Language:

ITAMSAT 1 - Orbit

View from above orbital plane
View from above orbital plane
View from above satellite
View from above satellite

Ground track
Ground track

The orbit data is extracted from the following two-line orbital elements,

1 22826U 93061D   17268.88687311 +.00000022 +00000-0 +26134-4 0  9999
2 22826 098.8187 235.8355 0009590 033.5847 326.5941 14.30336716251728
Epoch (UTC): 25 September 2017 21:17:05
Eccentricity: 0.0009590
inclination: 98.8187°
perigee height: 784 km
apogee height: 797 km
right ascension of ascending node: 235.8355°
argument of perigee: 33.5847°
revolutions per day: 14.30336716
mean anomaly at epoch: 326.5941°
orbit number at epoch: 25172

The dashed part of the orbit path shows where the satellite is in the earth's shadow,  

DLR